Location: Asheville, NC
(35.6000°N, 82.5500°W)
Time: 15:27:38
(UTC-04:00)

XW-2F - Pass Details

Date: 17 March 2018
Orbit: 506 x 526 km, 97.5° (Epoch: 24 June)

Event Time Altitude Azimuth Distance (km) Brightness Sun altitude
Rises 06:55:01 0° 26° (NNE) 2,660 ? -9.6°
Reaches altitude 10° 06:57:25 10° 40° (NE) 1,769 ? -9.1°
Maximum altitude 07:00:35 25° 96° (E) 1,102 ? -8.5°
Drops below altitude 10° 07:03:44 10° 152° (SSE) 1,762 ? -7.8°
Sets 07:06:07 0° 166° (SSE) 2,646 ? -7.3°
